CZ-6A DEB

Satellite information

Favourite Embed

Satellite Type and Status

DEBRISIN ORBIT

Key statistics

Satellite CZ-6A DEB at a glance.

Uptime

1073

Days in orbit

Revolutions

≈ 14.3

Per day

Orbit

SSO

Sun Synchronous Orbit

Inclination

98.8

Latest

Satellite identification and parameters

Extended collection of information and parameters for CZ-6A DEB.

Object identification

Identified? True

Debris? True

Object name: CZ-6A DEB

International designator: 2022-151HN

Object number (NORAD): 54486

Object ID (CCSDS): 54486

Country: PEOPLES REPUBLIC OF CHINA (PRC)

Current information (Y/N): Y

RCS size: SMALL

Orbital parameters

Period: 100.832 minutes

Inclination: 98.8132 deg

SMA: 7176.176 km

Apoapsis: 852.917 km

Periapsis: 743.164 km

RAAN: 303.7655 deg

Eccentricy: 0.00764707

Argument of periapsis: 317.5762 deg

Mean anomaly: 41.9522 deg

Mean motion: 14.28114932 rev/day

Mean motion (dot): 0.00012893 rev/day2

B* drag term: 0.0050348018 1/REarth

Two-line elements (TLE)

Creation date: Oct. 19, 2025, 2:20 a.m.

Reference frame: TEME

Reference center: EARTH

Epoch: Oct. 18, 2025, 5:02 p.m. UTC

TLE line 0: 0 CZ-6A DEB

TLE line 1: 1 54486U 22151HN 25291.70977960 .00012893 00000-0 50348-2 0 9997

TLE line 2: 2 54486 98.8132 303.7655 0076471 317.5762 41.9522 14.28114932151202

Live tracking on map

Real-time ground track for satellite CZ-6A DEB.

In-orbit conjunctions

A list of the most updated potential collisions computed for object CZ-6A DEB.

Target Orbit TCA Probability of collision Miss distance Type
COSMOS 1110 LEO 2025-06-29 14:58:36 0.0002019052 470.0 (m) PAYLOAD
SL-3 R/B LEO 2025-01-16 11:19:55 0.0001214533 298.0 (m) ROCKET BODY

Associated space launch

Chinese satellite reported for atmospheric/ocean/environmental/spatial parameter research purposes, details TBD.

CZ-6A DEB was lifted into orbit during the mission ‘Long March 6A | Yunhai 3’, on board a Long March 6A space rocket.

The launch took place on Nov. 11, 2022, 10:52 p.m. from Launch Complex 9A.

For more information about the launch, click the button.

Launch to space Long March 6A | Yunhai 3
Long March 6A | Yunhai 3

Agency: N/A

Status: Launch Successful

Launch date: Nov. 11, 2022, 10:52 p.m. UTC

Rocket: Long March 6A

Launch pad: Launch Complex 9A

Location: Taiyuan Satellite Launch Center, People's Republic of China

...

Latest news about this satellite

There are no fresh news available about this satellite. Check back as we update our databases every day.


Newsletter sign-up

Weekly statistics, charts and insights to help you stay on top of the space industry.